Theta_e
342 343 342 342 341 341 344 343 341 338 338 338 337 336 339 341 343 343 344 336 338 342 344 343 340 340 339 337 334 332 331 330 328 327 326 326 326 325 325 325 325 325 325
344 343 341 340 338 339 343 343 341 337 336 334 333 335 337 338 339 342 342 342 334 336 340 340 340 339 336 332 329 328 326 326 325 323 322 321 321 321 321 320 320 320 320
345 344 341 337 338 338 342 342 339 337 335 332 332 334 334 335 336 337 341 342 338 330 333 336 336 334 332 330 327 325 323 321 321 320 318 317 318 317 317 316 316 317 317
343 343 341 340 340 337 339 340 339 336 332 330 332 330 330 333 334 335 338 338 338 334 329 330 331 330 329 328 325 323 320 319 318 317 316 316 316 315 314 314 313 313 313
342 344 342 342 341 338 336 338 337 335 333 326 329 327 328 329 331 331 333 332 333 331 329 326 326 325 327 325 324 322 321 318 317 317 316 315 314 313 313 313 313 313 314
340 341 343 342 341 339 335 336 335 335 332 331 325 324 324 324 324 323 324 328 328 326 327 324 323 322 323 324 323 322 321 318 317 316 315 314 313 312 312 313 314 314 314
338 341 341 341 341 340 337 335 335 331 321 324 318 318 317 317 317 317 318 319 319 320 323 324 320 321 321 322 322 321 320 318 316 315 314 313 312 311 312 312 312 312 312
340 341 340 339 338 338 337 334 330 324 320 322 318 317 310 312 314 313 312 314 315 316 317 317 319 321 321 320 320 319 318 316 316 315 313 312 311 312 311 310 311 310 310
341 342 341 340 338 337 336 335 332 327 318 320 322 317 310 308 309 311 310 309 310 311 310 310 309 310 313 315 318 316 314 314 313 313 312 311 313 311 310 309 308 308 309
332 334 338 337 337 335 335 334 332 329 324 318 319 318 317 315 309 304 306 305 305 303 302 304 305 307 309 311 313 311 310 310 311 311 311 311 311 311 309 309 308 308 309
320 320 323 326 327 327 329 327 323 325 324 321 318 315 313 311 310 306 299 302 303 302 302 302 303 304 305 306 308 308 307 307 308 307 308 308 310 309 308 307 307 306 307
318 319 317 320 321 321 321 322 322 322 323 321 319 317 314 311 307 308 303 300 299 300 301 302 302 302 303 304 306 306 305 303 305 306 307 309 309 307 306 305 304 304 305
317 318 315 315 318 321 318 319 320 319 319 320 318 316 317 313 312 308 307 301 298 297 298 299 300 300 302 304 305 303 302 302 303 304 306 305 304 303 302 300 300 300 301
321 318 315 315 318 319 319 321 321 321 320 319 317 316 314 313 311 310 306 300 297 297 297 296 298 299 300 302 302 301 300 300 300 301 302 301 300 299 297 297 297 296 297
315 316 315 314 314 316 315 317 315 316 316 313 314 312 311 311 311 310 309 306 301 294 295 295 294 298 299 301 300 298 298 299 298 299 299 298 297 296 295 294 294 294 294
312 312 312 311 312 310 310 310 311 310 310 308 307 307 307 310 309 308 307 307 306 302 296 297 295 296 298 299 298 296 297 297 296 296 297 296 294 293 292 292 292 291 291
311 310 310 309 307 306 306 307 308 306 306 305 305 308 308 308 307 305 306 305 304 301 296 293 295 296 296 295 295 295 295 294 295 296 295 294 292 291 291 290 289 289 288
310 309 309 308 306 305 305 304 303 303 303 303 305 304 305 302 303 304 304 300 299 299 295 290 292 293 294 294 293 292 292 293 293 295 293 292 291 290 289 288 288 287 287
310 309 307 306 305 303 302 302 302 301 302 302 300 300 299 299 297 297 299 298 297 297 297 292 291 293 292 292 290 291 290 290 291 293 291 290 289 289 288 288 287 287 286
308 307 307 306 305 303 302 302 301 300 299 300 300 302 302 302 300 298 297 295 295 295 296 295 291 290 290 290 290 287 286 289 289 291 291 290 289 288 287 287 286 286 286
305 305 305 305 305 303 301 301 300 300 299 298 299 299 298 298 296 295 295 294 295 295 294 294 291 288 287 286 286 287 286 286 288 290 289 288 288 289 289 286 286 286 285
306 305 304 303 302 301 296 294 298 297 297 299 296 294 292 294 292 291 292 293 297 298 296 294 290 288 287 287 287 286 285 284 283 289 288 286 289 289 288 289 285 285 285
306 303 302 301 300 301 294 294 292 297 296 296 297 294 292 290 292 291 290 290 289 290 295 297 292 291 288 289 288 286 286 288 289 288 288 284 287 286 288 286 284 284 283
304 303 303 301 300 299 294 293 291 295 293 292 289 290 291 289 290 291 291 290 288 289 289 293 295 289 291 291 292 291 290 289 288 287 290 283 286 284 287 288 285 284 283
303 303 293 300 298 290 292 292 290 291 287 287 287 288 288 287 288 289 286 286 285 286 285 289 290 290 291 291 293 292 287 285 283 284 287 286 284 283 284 285 287 285 283
299 300 298 293 292 292 291 291 291 289 288 287 287 289 288 287 288 287 287 285 285 284 284 285 287 288 289 289 289 291 290 286 285 283 285 286 282 283 281 284 285 286 285
Wind_Speed
9 9 7 7 6 6 6 6 5 5 4 4 4 4 5 5 5 4 4 6 8 11 12 12 10 13 18 18 19 19 18 19 18 17 16 15 15 16 15 15 16 16 16
9 9 8 7 6 5 6 6 6 5 5 4 4 5 6 5 5 5 4 5 6 8 11 13 17 21 23 21 19 17 16 16 16 14 13 13 13 14 14 12 13 13 14
9 10 7 8 7 7 9 7 5 4 4 4 5 4 5 6 5 6 5 5 8 10 15 20 22 23 21 21 20 18 16 14 15 16 13 10 12 12 13 11 12 12 12
11 11 9 9 9 7 8 7 7 6 5 5 5 5 5 6 7 8 8 8 8 9 11 18 20 20 19 18 18 16 13 13 13 16 16 14 13 12 12 12 12 11 10
11 11 9 9 9 7 7 7 6 6 6 4 5 4 4 6 7 6 9 9 11 10 8 15 18 18 20 20 20 18 17 13 12 14 16 14 11 10 10 11 11 10 10
9 11 9 9 9 8 7 7 8 7 4 6 5 4 3 3 4 5 8 8 10 9 11 11 9 10 17 19 19 17 16 14 14 15 15 14 12 9 9 9 10 11 11
9 12 9 9 9 9 10 9 7 8 2 6 5 3 2 2 3 2 2 6 9 8 11 12 7 8 10 15 17 17 16 14 13 15 14 12 11 8 8 8 9 8 8
12 11 11 9 10 8 9 9 8 3 3 8 3 1 3 0 1 2 2 1 6 5 9 7 7 9 10 8 10 17 17 15 13 12 10 12 9 8 6 7 9 7 7
10 11 11 9 10 9 8 9 9 10 6 7 5 3 3 4 3 1 1 4 5 2 4 6 6 6 6 8 12 13 15 15 12 11 9 6 10 9 9 8 6 6 9
4 5 6 8 8 6 8 8 8 7 6 7 4 2 1 3 3 3 1 3 6 6 7 3 6 6 7 8 13 14 14 12 12 9 8 6 7 10 10 10 10 10 8
4 3 2 3 4 3 5 5 4 6 7 5 5 3 1 2 3 3 5 4 4 5 6 3 3 5 6 7 7 12 16 15 10 8 7 6 9 10 11 12 10 10 10
2 3 2 2 3 4 4 4 5 8 8 7 8 7 8 6 5 5 3 4 6 3 3 4 4 3 4 5 8 16 14 13 9 9 9 11 12 12 12 12 10 10 11
3 4 4 4 4 5 4 5 7 8 9 9 10 7 6 5 3 3 4 4 4 3 2 2 4 4 4 5 7 12 12 11 10 9 12 13 13 12 11 10 10 10 11
2 5 6 6 5 6 6 7 7 6 6 7 11 9 6 4 5 5 6 9 4 3 3 5 2 5 5 6 9 13 7 12 10 7 14 16 13 12 9 8 9 10 10
1 1 3 4 3 5 5 6 3 6 7 4 4 5 5 5 5 5 6 10 9 6 5 7 5 7 6 7 10 8 8 13 10 9 13 15 13 12 10 9 8 10 10
1 3 3 5 5 4 4 5 5 5 5 2 3 6 4 6 6 4 6 7 4 7 5 3 2 8 10 8 12 10 10 14 12 10 13 15 14 12 9 9 10 10 10
2 3 3 4 5 5 5 6 7 6 6 5 5 6 7 7 6 5 5 3 4 4 7 3 3 10 11 13 11 10 10 9 7 13 17 17 15 11 10 10 10 9 9
3 4 5 6 5 4 5 6 5 4 6 8 8 7 7 4 6 8 6 7 6 5 6 11 9 7 10 13 11 12 9 8 8 14 16 15 14 11 11 11 9 8 9
3 4 5 5 7 8 6 5 6 6 6 6 7 7 8 8 7 5 8 8 6 5 9 10 9 6 5 10 12 9 9 8 7 16 15 14 12 12 11 11 10 9 9
4 5 6 7 8 7 8 8 7 7 7 7 7 9 11 12 11 10 8 9 8 8 9 9 9 9 9 10 10 10 8 5 8 9 10 10 12 12 11 10 9 9 9
6 7 7 9 8 7 6 9 9 9 7 7 7 8 8 9 12 9 7 8 10 8 9 9 9 7 8 11 11 7 6 7 6 4 9 8 8 7 8 7 9 9 8
6 7 7 8 8 5 9 13 10 7 9 11 10 7 6 7 8 10 6 8 10 13 13 10 8 11 12 11 8 10 9 9 6 4 9 8 7 7 6 4 8 9 8
6 7 7 7 9 10 12 14 14 7 7 9 11 10 7 6 10 9 9 10 5 3 11 15 15 13 13 13 12 12 13 13 8 10 10 7 7 6 5 7 11 10 8
7 7 9 8 10 9 13 14 16 11 8 10 9 10 10 8 8 10 10 9 4 3 5 5 10 11 11 16 16 14 15 9 6 8 9 5 6 5 6 6 12 10 8
8 8 4 11 11 9 12 15 12 8 7 7 6 5 8 9 14 17 12 11 6 1 3 8 11 15 18 22 15 11 10 11 6 7 5 5 6 6 5 6 7 12 9
9 8 11 7 9 11 9 12 13 7 8 7 7 11 12 12 21 21 14 14 11 8 8 8 8 9 13 16 19 11 12 11 7 6 7 7 7 7 5 5 6 6 6
Wind_Direction
191 186 188 187 197 188 198 187 187 182 192 203 197 196 181 172 162 157 149 140 146 144 152 154 162 136 120 112 103 101 101 98 96 93 89 80 77 75 65 58 53 54 49
196 193 187 192 179 198 201 215 194 187 191 183 202 203 191 175 177 172 157 142 133 133 141 134 128 119 111 108 108 108 108 107 105 99 98 97 89 73 68 57 53 49 41
202 197 189 191 200 197 205 202 209 199 193 180 198 179 179 178 167 160 158 149 131 114 131 131 127 128 132 130 126 123 125 122 121 113 95 82 85 89 83 70 54 48 41
198 194 193 197 193 191 205 202 202 204 204 191 181 183 183 178 168 167 164 152 141 138 124 137 140 136 134 134 130 128 119 118 115 107 103 101 98 93 88 85 74 65 57
205 206 204 203 189 196 201 205 202 211 204 183 190 174 185 184 185 174 175 160 157 154 145 142 142 144 148 147 137 135 131 125 113 106 105 101 97 96 93 94 91 81 68
201 206 210 204 196 201 203 200 203 208 199 200 172 147 155 167 183 187 176 170 164 160 151 157 153 151 148 146 141 136 132 126 124 113 107 109 100 91 96 91 90 89 87
198 207 210 208 205 212 211 205 197 193 147 145 114 124 111 128 153 170 241 181 157 172 165 159 162 152 149 140 140 141 130 124 115 111 115 111 103 115 114 99 91 82 83
202 209 207 204 207 213 218 195 185 154 135 176 165 63 154 214 315 88 359 1 138 148 166 157 148 150 151 140 140 136 127 124 117 107 112 116 122 116 102 86 71 69 87
200 208 214 212 211 209 211 208 201 189 187 195 219 155 203 196 153 109 112 19 51 33 98 112 105 113 113 126 139 118 119 116 123 118 118 126 130 115 92 69 71 64 50
174 208 218 211 216 207 216 206 197 199 171 190 209 199 219 138 176 172 135 129 92 60 18 36 100 108 119 117 127 116 102 98 102 106 109 113 119 112 102 89 55 45 53
141 143 191 206 203 194 213 202 175 200 194 187 187 168 166 117 105 147 156 178 106 127 127 104 69 105 87 107 113 111 111 102 105 110 119 127 126 103 92 80 60 47 43
153 174 166 181 205 205 195 197 194 205 209 207 194 185 183 180 174 162 135 141 125 116 116 133 119 103 107 99 120 118 108 110 113 116 113 108 98 86 77 71 59 53 49
192 186 168 177 190 213 206 198 211 209 198 199 197 200 196 196 135 116 122 125 137 132 135 95 130 128 125 113 132 119 115 117 112 115 110 95 86 79 69 55 51 44 40
200 176 181 197 199 213 202 203 214 228 217 210 198 193 190 175 153 162 152 140 121 159 150 143 154 155 144 136 132 121 115 106 101 112 105 95 88 80 75 62 57 47 49
108 270 238 231 221 233 227 227 214 199 201 183 192 170 155 172 169 170 169 170 151 158 174 171 155 171 153 142 134 118 114 110 105 108 107 106 99 93 84 73 66 53 48
127 178 209 229 234 231 216 205 201 187 176 167 164 159 165 174 175 156 169 182 179 154 150 148 156 154 152 130 132 122 121 121 113 97 112 112 108 99 93 83 67 57 51
209 245 247 248 227 204 197 206 202 179 179 173 178 189 195 181 176 162 157 176 160 122 136 105 112 149 141 135 137 131 127 124 121 120 114 112 114 111 102 92 84 68 60
189 201 209 212 219 221 210 207 191 176 173 178 184 176 181 164 170 162 164 156 153 151 131 137 138 148 150 139 137 124 128 129 129 132 120 119 117 119 114 106 105 94 77
237 239 233 228 213 192 212 203 186 186 192 199 177 173 164 164 159 165 154 146 143 137 142 147 139 148 123 138 127 123 127 126 136 135 128 131 130 125 126 125 123 109 98
254 237 242 239 235 221 202 206 203 197 190 198 186 188 184 186 173 169 158 153 145 136 138 137 138 142 138 143 132 135 134 140 146 149 145 137 146 137 131 124 125 119 113
228 237 238 241 226 219 224 213 210 201 197 199 202 199 192 190 170 173 164 162 152 140 139 143 143 140 139 150 150 151 138 140 146 144 156 155 151 154 140 148 126 123 127
252 247 237 245 241 223 221 216 219 205 192 202 199 199 174 167 167 166 179 165 179 157 157 154 160 158 160 157 143 149 146 157 166 190 164 157 164 168 161 154 118 136 137
259 249 244 239 240 240 220 216 208 213 204 207 201 189 194 180 166 167 149 122 106 128 158 163 164 171 160 163 151 157 171 181 176 158 165 157 185 175 164 141 155 148 147
275 255 256 248 251 242 222 212 204 211 209 204 188 186 178 184 168 160 146 136 121 82 143 131 173 158 159 165 166 168 171 155 105 150 165 156 178 172 176 171 171 165 156
283 265 218 238 237 241 220 215 197 206 206 198 173 190 176 173 160 155 139 136 137 125 73 124 144 145 150 163 162 150 155 153 140 163 181 147 172 158 174 186 183 174 160
260 268 269 231 230 251 224 219 197 199 215 215 199 160 204 188 171 163 159 152 153 173 153 124 117 132 150 164 156 160 158 164 142 149 177 173 159 161 176 191 184 176 163